Powrót do katalogu

STARLINK-38053

AktywnyŁącznośćSSO
NORAD 100230·PAYLOAD·🇺🇸 United States

Wystrzelony Aug 4, 2026 z Vandenberg Space Force Base

Loading…

Następne Przeloty (najbliższe 24 godziny)

TLE

ŚwieżeSource: Space-Track

Epoka: Sep 14, 2026, 15:00 UTC

1 A0230U 26177T   26257.62520510  .00027821  00000-0  51119-3 0  9991
2 A0230  97.2831 308.4080 0001349 102.3290 257.8112 15.49200803  7526

Śledź STARLINK-38053 w czasie rzeczywistym z AllMySat

Download on the App Store